Location: Utrecht
(52.0907°N, 5.1214°E)
Time: 16:46:48
(UTC+02:00)

KKS-1 - Pass Details

Date: 03 July 2022
Orbit: 634 x 649 km, 98.2° (Epoch: 18 August)

Event Time Altitude Azimuth Distance (km) Brightness Sun altitude
Rises 01:43:19 0° 2° (N) 2,982 ? -14.9°
Reaches altitude 10° 01:46:36 10° 336° (NNW) 2,064 ? -14.9°
Maximum altitude 01:48:44 13° 307° (NW) 1,840 ? -14.9°
Drops below altitude 10° 01:50:52 10° 279° (W) 2,055 ? -14.9°
Sets 01:54:07 0° 253° (WSW) 2,957 ? -14.9°
